COSMOS 1275 DEB, 14364

Orbit data source: Space-Track

COSMOS 1275 DEB, 14364 is space debris in LEO originally from a launch on Thu, 04 Jun 1981 UTC launched from the Plesetsk Missile And Space Complex (PKMTR). Debris objects in space refer to the collection of defunct objects orbiting the Earth. Examples of debris include non-operational satellites, rocket bodies, and fragments generated from explosions, collisions, or faulty payload assembly.

Loading next visibility...
Identifier
14364, 1981-053HX
Orbit
LEO
Country
Flag of CISCIS
Related business
Manufacturer
Unknown
Mission
Spacecraft
Bus & Motor
Unknown
Mass
Unknown
Launch date (UTC)
1981-06-04 (45 years ago)
Launch vehicle
Unknown
Launch site
Plesetsk Missile And Space Complex (PKMTR)
Object type
Payload
Rocket body
Debris
Shape & HBR
Unknown shape, 0.1 m
Radar Cross Section
Small (<0.1 m²)

Expand to show TLE details & history
Last TLE update: 16 hours ago

TLE from 16 hours ago
0 COSMOS 1275 DEB
1 14364U 81053HX  26121.95738568  .00003177  00000-0  13418-2 0  9995
2 14364  82.7756 312.6927 0027043   8.1678 351.9940 14.25151016221025
Epoch: 2026-05-01T22:58Z
TLE epoch observation values (Epoch: 2026-05-01T22:58:38.122Z)
Latitude
-0.00005°
Longitude
108.15166°
Altitude
791.703 km
Speed
7.468 km/s
True Right ascension
20h 50m 46s
True Declination
0° 00' 00"
Sunlit
Object was in daylight at epoch
Visualization orbit readout
Latitude
Unknown
Longitude
Unknown
Altitude
Unknown
Speed
Unknown
Apparent Right ascension
Unknown
Apparent Declination
Unknown
Sunlit
N/A
Visualization observer readout
Local Sidereal Time
23:03:36
Azimuth
Unknown
Elevation
Unknown
Doppler factor
Unknown
Orbital elements
Apogee altitude
824.497 km
Perigee altitude
785.646 km
Semi-major axis
7,183.208 km
Eccentricity
0.0027
Inclination
82.7756°
RAAN
312.6927°
Arg. of periapsis
8.1678°
True anomaly
351.95069°
Mean anomaly
351.994°
Eccentric anomaly
351.97236°
Mean motion
3.56505 °/min
Orbital period
100.98 mins
BSTAR
0.0013418
Loading maneuver chart data...
Computing Atmospheric mass density...
Loading historical data...
Loading historical data...
Loading historical data...
Loading historical data...
Loading historical data...
Loading historical data...
Loading historical data...

Documentation

Showing up to 5 results
|